EW7070 Weather Reports


Display with metric or nautical units.
time (UTC)temp
F
wind
direction
speed
MPH
gust
MPH
rain 1hr
in
rain 24hr
in
rain mn
in
humidity
%
barometer
mb
20260906091438 42 266 1.0 2.0 0.00 0.00 0.00 86 1025.3
20260906091210 42 266 0.0 2.0 0.00 0.00 0.00 86 1025.2
20260906090412 42 143 1.0 4.0 0.00 0.00 0.00 85 1025.2
20260906085910 43 230 1.0 4.0 0.00 0.00 0.00 85 1025.1
20260906085338 43 308 0.0 1.0 0.00 0.00 0.00 83 1025.0
20260906084833 43 308 0.0 2.0 0.00 0.00 0.00 83 1024.9
20260906084332 44 308 1.0 2.0 0.00 0.00 0.00 83 1024.8
20260906083804 44 267 1.0 2.0 0.00 0.00 0.00 83 1024.8
20260906083236 45 276 0.0 2.0 0.00 0.00 0.00 82 1024.8
20260906082732 45 276 1.0 2.0 0.00 0.00 0.00 81 1024.7
20260906082231 46 276 1.0 2.0 0.00 0.00 0.00 80 1024.6
20260906081702 46 276 1.0 3.0 0.00 0.00 0.00 80 1024.5
20260906081135 47 270 1.0 2.0 0.00 0.00 0.00 79 1024.7
20260906080619 47 220 1.0 4.0 0.00 0.00 0.00 77 1024.6
20260906080121 47 247 2.0 3.0 0.00 0.00 0.00 76 1024.5
20260906075824 47 232 3.0 8.0 0.00 0.00 0.00 76 1024.5
20260906075051 47 229 4.0 9.0 0.00 0.00 0.00 76 1024.6
20260906074523 47 226 3.0 9.0 0.00 0.00 0.00 77 1024.4
20260906074228 47 276 2.0 4.0 0.00 0.00 0.00 78 1024.3
20260906073428 48 245 3.0 9.0 0.00 0.00 0.00 78 1024.5
20260906072924 48 261 3.0 9.0 0.00 0.00 0.00 78 1024.4
20260906072354 48 225 2.0 5.0 0.00 0.00 0.00 79 1024.2
20260906072119 48 247 3.0 5.0 0.00 0.00 0.00 79 1024.2
20260906071345 48 237 2.0 6.0 0.00 0.00 0.00 79 1024.4
20260906070818 48 243 2.0 3.0 0.00 0.00 0.00 79 1024.3
20260906070258 48 237 2.0 3.0 0.00 0.00 0.00 79 1024.3
20260906065732 49 228 2.0 6.0 0.00 0.00 0.00 79 1024.2
20260906065203 49 235 1.0 6.0 0.00 0.00 0.00 79 1024.3
20260906064635 49 261 1.0 4.0 0.00 0.00 0.00 79 1024.3
20260906064133 50 257 1.0 2.0 0.00 0.00 0.00 77 1024.1
20260906063602 50 257 1.0 3.0 0.00 0.00 0.00 77 1024.0
20260906063037 50 252 1.0 3.0 0.00 0.00 0.00 75 1024.0
20260906062510 50 244 1.0 6.0 0.00 0.00 0.00 75 1024.0
20260906062004 50 223 3.0 6.0 0.00 0.00 0.00 75 1024.1
20260906061439 51 187 3.0 6.0 0.00 0.00 0.00 75 1024.1
20260906060923 51 240 2.0 6.0 0.00 0.00 0.00 75 1024.1
20260906060651 51 250 2.0 5.0 0.00 0.00 0.00 76 1024.0
20260906055921 51 251 3.0 5.0 0.00 0.00 0.00 76 1024.0
20260906055418 51 236 2.0 5.0 0.00 0.00 0.00 76 1024.0
20260906054916 51 260 2.0 8.0 0.00 0.00 0.00 76 1024.0
20260906054350 51 276 3.0 8.0 0.00 0.00 0.00 76 1024.0
20260906053825 51 212 3.0 9.0 0.00 0.00 0.00 77 1024.0
20260906053323 51 251 3.0 9.0 0.00 0.00 0.00 79 1023.9
20260906052810 51 253 3.0 7.0 0.00 0.00 0.00 81 1023.8
20260906052241 51 211 3.0 7.0 0.00 0.00 0.00 82 1023.6
20260906051717 51 269 3.0 6.0 0.00 0.00 0.00 84 1023.6
20260906051206 50 229 3.0 6.0 0.00 0.00 0.00 87 1023.4
20260906050638 50 243 2.0 6.0 0.00 0.00 0.00 91 1023.2
20260906050136 50 258 1.0 2.0 0.00 0.00 0.00 93 1023.1
20260906045607 50 249 0.0 2.0 0.00 0.00 0.00 94 1023.0
20260906045336 50 249 0.0 0.0 0.00 0.00 0.00 94 1023.0
20260906044547 50 249 0.0 0.0 0.00 0.00 0.00 94 1023.1
20260906044047 50 249 0.0 0.0 0.00 0.00 0.00 94 1022.8
20260906043545 50 249 0.0 2.0 0.00 0.00 0.00 94 1022.8
20260906043047 50 249 1.0 2.0 0.00 0.00 0.00 93 1022.7
20260906042750 49 286 0.0 1.0 0.00 0.00 0.00 93 1022.6
20260906042018 49 286 0.0 0.0 0.00 0.00 0.00 93 1022.5
20260906041514 49 286 0.0 0.0 0.00 0.00 0.00 93 1022.4
20260906041015 50 286 0.0 1.0 0.00 0.00 0.00 93 1022.4
20260906040449 50 286 0.0 2.0 0.00 0.00 0.00 93 1022.3
20260906035946 50 286 0.0 2.0 0.00 0.00 0.00 93 1022.4
20260906035448 50 286 0.0 1.0 0.00 0.00 0.00 93 1022.3
20260906034941 50 286 0.0 1.0 0.00 0.00 0.00 93 1022.2
20260906034712 50 286 0.0 0.0 0.00 0.00 0.00 93 1022.2
20260906033940 50 286 0.0 0.0 0.00 0.00 0.00 93 1022.2
20260906033417 50 286 0.0 0.0 0.00 0.00 0.00 93 1022.2
20260906032912 50 286 0.0 1.0 0.00 0.00 0.00 93 1022.1
20260906032349 50 286 0.0 1.0 0.00 0.00 0.00 92 1022.2
20260906031826 50 286 0.0 1.0 0.00 0.00 0.00 92 1022.2
20260906031255 50 286 0.0 1.0 0.00 0.00 0.00 92 1022.1
20260906030752 50 286 0.0 0.0 0.00 0.00 0.00 92 1022.1
20260906030249 50 286 0.0 1.0 0.00 0.00 0.00 92 1021.9
20260906025744 50 286 0.0 1.0 0.00 0.00 0.00 91 1021.9
20260906025216 50 286 0.0 1.0 0.00 0.00 0.00 90 1021.9
20260906024944 50 286 0.0 2.0 0.00 0.00 0.00 90 1022.0
20260906024211 51 286 0.0 1.0 0.00 0.00 0.00 89 1021.8
20260906023933 51 286 1.0 2.0 0.00 0.00 0.00 90 1021.6
20260906023158 51 286 0.0 2.0 0.00 0.00 0.00 90 1021.7
20260906022630 51 141 0.0 0.0 0.00 0.00 0.00 90 1021.8
20260906022351 51 141 0.0 1.0 0.00 0.00 0.00 90 1021.6
20260906021617 51 141 0.0 1.0 0.00 0.00 0.00 91 1021.5
20260906021105 52 141 0.0 0.0 0.00 0.00 0.00 91 1021.5
20260906020604 52 141 0.0 0.0 0.00 0.00 0.00 90 1021.4
20260906020104 52 141 0.0 0.0 0.00 0.00 0.00 90 1021.4
20260906015536 52 141 0.0 0.0 0.00 0.00 0.00 89 1021.3
20260906015033 52 141 0.0 2.0 0.00 0.00 0.00 89 1021.0
20260906014522 52 141 0.0 2.0 0.00 0.00 0.00 88 1021.2
20260906014020 52 101 0.0 0.0 0.00 0.00 0.00 88 1021.2
20260906013506 52 101 0.0 2.0 0.00 0.00 0.00 88 1021.1
20260906013005 52 101 1.0 2.0 0.00 0.00 0.00 88 1021.0
20260906012453 52 177 1.0 2.0 0.00 0.00 0.00 89 1020.9
20260906011952 52 177 1.0 3.0 0.00 0.00 0.00 89 1020.9
20260906011452 52 147 1.0 6.0 0.00 0.00 0.00 89 1021.0
20260906010946 52 172 1.0 6.0 0.00 0.00 0.00 89 1020.9
20260906010715 52 299 0.0 1.0 0.00 0.00 0.00 89 1020.8
20260906005917 52 299 0.0 1.0 0.00 0.00 0.00 88 1020.7
20260906005410 53 299 1.0 2.0 0.00 0.00 0.00 88 1020.7
20260906004907 53 298 1.0 3.0 0.00 0.00 0.00 88 1020.5
20260906004343 53 245 1.0 3.0 0.00 0.00 0.00 88 1020.5
20260906004108 53 285 1.0 5.0 0.00 0.00 0.00 88 1020.4
20260906003311 53 149 1.0 5.0 0.00 0.00 0.00 88 1020.4
20260906002808 53 248 1.0 4.0 0.00 0.00 0.00 88 1020.3
20260906002240 53 245 2.0 4.0 0.00 0.00 0.00 89 1020.2
20260906001711 53 291 2.0 5.0 0.00 0.00 0.00 91 1020.0
20260906001209 53 212 2.0 4.0 0.00 0.00 0.00 91 1020.1
20260906000640 53 187 1.0 2.0 0.00 0.00 0.00 89 1019.7
20260906000403 53 272 0.0 1.0 0.00 0.00 0.00 88 1019.6
20260905235858 53 272 0.0 0.0 0.00 0.00 0.00 87 1019.5
20260905235125 53 272 0.0 0.0 0.00 0.00 0.00 87 1019.5
20260905234615 54 272 0.0 2.0 0.00 0.00 0.00 87 1019.4
20260905234112 54 272 0.0 2.0 0.00 0.00 0.00 87 1019.3
20260905233545 54 272 0.0 1.0 0.00 0.00 0.00 87 1019.3
20260905233039 54 271 0.0 0.0 0.00 0.00 0.00 85 1019.1
20260905232539 54 271 0.0 1.0 0.00 0.00 0.00 85 1019.1
20260905232013 55 272 0.0 2.0 0.00 0.00 0.00 85 1019.1
20260905231443 55 271 1.0 2.0 0.00 0.00 0.00 85 1018.9
20260905230914 55 272 1.0 2.0 0.00 0.00 0.00 85 1018.9
20260905230413 55 305 0.0 2.0 0.00 0.00 0.00 84 1018.9
20260905230119 56 305 0.0 2.0 0.00 0.00 0.00 83 1018.7
20260905225317 56 305 0.0 2.0 0.00 0.00 0.00 83 1018.8
20260905224808 56 305 0.0 2.0 0.00 0.00 0.00 81 1018.6
20260905224801 56 305 0.0 1.0 0.00 0.00 0.00 81 1018.7
20260905223801 56 305 0.0 2.0 0.00 0.00 0.00 82 1018.6
20260905223507 56 305 0.0 1.0 0.00 0.00 0.00 80 1018.6
20260905222711 57 305 1.0 3.0 0.00 0.00 0.00 80 1018.5
20260905222144 57 295 1.0 3.0 0.00 0.00 0.00 80 1018.4
20260905221612 57 289 1.0 2.0 0.00 0.00 0.00 80 1018.4
20260905221049 57 283 1.0 2.0 0.00 0.00 0.00 78 1018.3
20260905221023 58 303 1.0 2.0 0.00 0.00 0.00 79 1018.3
20260905220009 58 303 1.0 2.0 0.00 0.00 0.00 78 1018.2
20260905215511 58 303 2.0 3.0 0.00 0.00 0.00 78 1018.3
20260905215002 58 301 1.0 2.0 0.00 0.00 0.00 77 1018.2
20260905214501 58 297 2.0 3.0 0.00 0.00 0.00 77 1018.1
20260905214230 59 303 1.0 3.0 0.00 0.00 0.00 79 1018.1
20260905213447 59 303 1.0 2.0 0.00 0.00 0.00 78 1018.0
20260905212947 59 295 1.0 2.0 0.00 0.00 0.00 76 1018.1
20260905212423 59 295 1.0 2.0 0.00 0.00 0.00 76 1018.0
20260905211920 60 318 1.0 3.0 0.00 0.00 0.00 77 1017.7
20260905211411 60 299 1.0 2.0 0.00 0.00 0.00 75 1017.6
20260905210856 61 295 1.0 2.0 0.00 0.00 0.00 74 1017.6
20260905210324 62 295 1.0 2.0 0.00 0.00 0.00 72 1017.7
20260905205314 63 295 1.0 3.0 0.00 0.00 0.00 68 1017.5
20260905204755 63 295 1.0 3.0 0.00 0.00 0.00 64 1017.6
20260905204513 64 268 1.0 3.0 0.00 0.00 0.00 62 1017.5
20260905203721 64 293 1.0 2.0 0.00 0.00 0.00 65 1017.6
20260905203215 65 293 1.0 2.0 0.00 0.00 0.00 64 1017.5
20260905202946 65 274 0.0 2.0 0.00 0.00 0.00 63 1017.2
20260905202215 65 281 0.0 2.0 0.00 0.00 0.00 63 1017.2
20260905201652 65 235 1.0 2.0 0.00 0.00 0.00 58 1017.2
20260905201125 65 212 1.0 3.0 0.00 0.00 0.00 56 1017.1
20260905200602 65 257 2.0 4.0 0.00 0.00 0.00 57 1017.2
20260905200038 65 263 2.0 8.0 0.00 0.00 0.00 57 1016.9
20260905195518 65 253 3.0 8.0 0.00 0.00 0.00 56 1016.7
20260905194959 65 267 3.0 9.0 0.00 0.00 0.00 55 1016.9
20260905194455 66 260 3.0 9.0 0.00 0.00 0.00 56 1016.8
20260905193954 66 269 2.0 6.0 0.00 0.00 0.00 54 1016.8
20260905193452 66 249 2.0 5.0 0.00 0.00 0.00 58 1016.7
20260905192952 66 268 2.0 5.0 0.00 0.00 0.00 55 1016.6
20260905192725 65 274 3.0 6.0 0.00 0.00 0.00 56 1016.6
20260905192205 65 297 4.0 9.0 0.00 0.00 0.00 53 1016.5
20260905191406 65 273 4.0 9.0 0.00 0.00 0.00 54 1016.5
20260905190842 66 177 3.0 8.0 0.00 0.00 0.00 54 1016.4
20260905190316 66 278 3.0 6.0 0.00 0.00 0.00 56 1016.2
20260905185803 66 220 3.0 8.0 0.00 0.00 0.00 51 1016.2
20260905185306 67 255 3.0 9.0 0.00 0.00 0.00 53 1016.1
20260905184738 67 206 3.0 9.0 0.00 0.00 0.00 49 1016.1
20260905184227 68 201 4.0 10.0 0.00 0.00 0.00 50 1016.1
20260905183700 68 228 5.0 10.0 0.00 0.00 0.00 50 1016.0
20260905183147 68 326 5.0 13.0 0.00 0.00 0.00 52 1016.0
20260905182647 68 287 2.0 13.0 0.00 0.00 0.00 53 1016.0
20260905182118 68 47 2.0 9.0 0.00 0.00 0.00 58 1016.1
20260905181835 67 340 3.0 9.0 0.00 0.00 0.00 57 1016.1
20260905181105 67 321 4.0 9.0 0.00 0.00 0.00 60 1016.1
20260905180604 67 320 4.0 9.0 0.00 0.00 0.00 56 1016.1
20260905180038 68 271 3.0 9.0 0.00 0.00 0.00 55 1016.1
20260905175524 68 276 3.0 9.0 0.00 0.00 0.00 56 1016.1
20260905175025 68 280 2.0 10.0 0.00 0.00 0.00 60 1016.1
20260905174454 68 283 2.0 10.0 0.00 0.00 0.00 58 1016.1
20260905173930 67 177 3.0 9.0 0.00 0.00 0.00 58 1016.2
20260905173402 67 297 3.0 9.0 0.00 0.00 0.00 58 1016.1
20260905172835 67 310 3.0 7.0 0.00 0.00 0.00 61 1016.3
20260905172310 67 318 2.0 7.0 0.00 0.00 0.00 59 1016.3
20260905171758 67 293 3.0 6.0 0.00 0.00 0.00 64 1016.3
20260905171254 67 164 3.0 8.0 0.00 0.00 0.00 58 1016.3
20260905170755 67 237 3.0 8.0 0.00 0.00 0.00 61 1016.4
20260905170255 67 115 2.0 8.0 0.00 0.00 0.00 59 1016.5
20260905165753 66 251 2.0 8.0 0.00 0.00 0.00 62 1016.7
20260905165229 66 213 2.0 7.0 0.00 0.00 0.00 61 1016.7
20260905164729 65 311 3.0 9.0 0.00 0.00 0.00 63 1016.7
20260905164445 65 304 4.0 9.0 0.00 0.00 0.00 63 1017.0
20260905163712 65 235 4.0 8.0 0.00 0.00 0.00 63 1016.9
20260905163211 65 251 3.0 8.0 0.00 0.00 0.00 63 1016.8
20260905162912 65 322 3.0 10.0 0.00 0.00 0.00 63 1016.9
20260905162115 66 253 3.0 10.0 0.00 0.00 0.00 65 1016.7
20260905161553 65 272 3.0 8.0 0.00 0.00 0.00 64 1016.8
20260905161035 65 269 3.0 8.0 0.00 0.00 0.00 67 1016.9
20260905160530 65 140 2.0 8.0 0.00 0.00 0.00 67 1016.9
20260905160028 65 113 2.0 6.0 0.00 0.00 0.00 69 1017.0
20260905155731 64 280 4.0 9.0 0.00 0.00 0.00 67 1017.0
20260905155228 64 285 4.0 10.0 0.00 0.00 0.00 68 1017.1
20260905154429 64 255 3.0 10.0 0.00 0.00 0.00 68 1017.0
20260905153926 64 138 3.0 8.0 0.00 0.00 0.00 68 1017.1
20260905153415 64 258 3.0 8.0 0.00 0.00 0.00 66 1017.3
20260905152850 64 279 5.0 14.0 0.00 0.00 0.00 71 1017.4
20260905152323 64 264 4.0 14.0 0.00 0.00 0.00 71 1017.5
20260905151809 64 239 4.0 11.0 0.00 0.00 0.00 73 1017.6
20260905151305 64 122 3.0 11.0 0.00 0.00 0.00 70 1017.5
20260905150803 64 193 3.0 6.0 0.00 0.00 0.00 73 1017.7
20260905150248 64 145 3.0 6.0 0.00 0.00 0.00 71 1017.8
20260905145750 64 281 2.0 6.0 0.00 0.00 0.00 71 1017.8
20260905145225 64 232 3.0 8.0 0.00 0.00 0.00 71 1017.8
20260905144713 63 332 4.0 8.0 0.00 0.00 0.00 74 1017.9
20260905144211 63 293 3.0 8.0 0.00 0.00 0.00 75 1018.0
20260905143658 63 269 3.0 8.0 0.00 0.00 0.00 74 1018.0
20260905143157 63 43 2.0 3.0 0.00 0.00 0.00 79 1018.0
20260905142632 62 47 2.0 5.0 0.00 0.00 0.00 77 1018.0
20260905142133 62 232 2.0 5.0 0.00 0.00 0.00 76 1018.0
20260905141632 62 203 2.0 5.0 0.00 0.00 0.00 77 1018.2
20260905141402 62 296 2.0 6.0 0.00 0.00 0.00 77 1018.2
20260905140630 62 280 2.0 6.0 0.00 0.00 0.00 75 1018.2
20260905140128 62 280 2.0 5.0 0.00 0.00 0.00 77 1018.3
20260905135601 63 227 2.0 5.0 0.00 0.00 0.00 77 1018.4
20260905135056 63 127 2.0 4.0 0.00 0.00 0.00 78 1018.4
20260905134527 62 107 1.0 4.0 0.00 0.00 0.00 81 1018.4
20260905134025 62 150 1.0 5.0 0.00 0.00 0.00 80 1018.4
20260905133518 61 102 1.0 5.0 0.00 0.00 0.00 82 1018.5
20260905132950 60 6 0.0 2.0 0.00 0.00 0.00 84 1018.5
20260905132422 60 6 1.0 2.0 0.00 0.00 0.00 85 1018.5
20260905131922 60 310 1.0 7.0 0.00 0.00 0.00 86 1018.5
20260905131422 59 221 1.0 7.0 0.00 0.00 0.00 87 1018.5
20260905130923 59 249 0.0 4.0 0.00 0.00 0.00 89 1018.4
20260905130420 58 210 0.0 3.0 0.00 0.00 0.00 91 1018.6
20260905125920 58 267 1.0 4.0 0.00 0.00 0.00 92 1018.5
20260905125408 58 114 1.0 4.0 0.00 0.00 0.00 94 1018.4
20260905125138 57 212 1.0 4.0 0.00 0.00 0.00 94 1018.5
20260905124408 56 217 1.0 4.0 0.00 0.00 0.00 95 1018.5
20260905123853 56 125 0.0 3.0 0.00 0.00 0.00 95 1018.4
20260905123352 56 219 0.0 3.0 0.00 0.00 0.00 96 1018.5
20260905123124 56 220 1.0 3.0 0.00 0.00 0.00 96 1018.6
20260905122325 55 279 1.0 3.0 0.00 0.00 0.00 97 1018.4
20260905121822 55 267 1.0 3.0 0.00 0.00 0.00 97 1018.5
20260905121319 55 295 1.0 4.0 0.00 0.00 0.00 98 1018.4
20260905120800 55 332 1.0 4.0 0.00 0.00 0.00 98 1018.5
20260905120234 55 311 1.0 4.0 0.00 0.00 0.00 98 1018.6
20260905115708 55 304 1.0 3.0 0.00 0.00 0.00 98 1018.4
20260905115140 55 310 1.0 2.0 0.00 0.00 0.00 98 1018.4
20260905114845 54 345 1.0 3.0 0.00 0.00 0.00 98 1018.2
20260905114109 54 343 1.0 3.0 0.00 0.00 0.00 98 1018.1
20260905113606 54 336 1.0 3.0 0.00 0.00 0.00 98 1018.3
20260905113103 54 322 1.0 4.0 0.00 0.00 0.00 98 1018.1
20260905112548 54 331 1.0 4.0 0.00 0.00 0.00 98 1018.1
20260905112045 54 0 0.0 2.0 0.00 0.00 0.00 98 1018.1
20260905111542 53 295 0.0 1.0 0.00 0.00 0.00 98 1018.0
20260905111014 53 244 0.0 2.0 0.00 0.00 0.00 98 1017.9
20260905110512 53 287 0.0 2.0 0.00 0.00 0.00 98 1017.9
20260905110007 53 264 0.0 1.0 0.00 0.00 0.00 98 1017.8
20260905105503 53 231 0.0 1.0 0.00 0.00 0.00 98 1017.6
20260905105230 53 231 0.0 2.0 0.00 0.00 0.00 98 1017.5
20260905104451 53 240 0.0 2.0 0.00 0.00 0.00 98 1017.6
20260905103949 53 303 0.0 2.0 0.00 0.00 0.00 98 1017.5
20260905103438 52 303 0.0 2.0 0.00 0.00 0.00 98 1017.3
20260905102936 52 303 0.0 2.0 0.00 0.00 0.00 98 1017.4
20260905102437 52 303 0.0 2.0 0.00 0.00 0.00 98 1017.4
20260905101939 52 299 0.0 2.0 0.00 0.00 0.00 98 1017.3
20260905101409 52 299 0.0 2.0 0.00 0.00 0.00 98 1017.3
20260905100907 52 343 0.0 1.0 0.00 0.00 0.00 98 1017.3
20260905100402 51 120 0.0 0.0 0.00 0.00 0.00 98 1017.3
20260905095859 51 120 0.0 0.0 0.00 0.00 0.00 98 1017.2
20260905095354 51 120 0.0 0.0 0.00 0.00 0.00 98 1016.9
20260905094852 51 120 0.0 0.0 0.00 0.00 0.00 98 1017.0
20260905094559 51 120 0.0 0.0 0.00 0.00 0.00 98 1017.0
20260905093801 51 120 0.0 0.0 0.00 0.00 0.00 98 1017.0
20260905093509 51 120 0.0 0.0 0.00 0.00 0.00 98 1016.9
20260905092739 51 120 0.0 0.0 0.00 0.00 0.00 98 1016.7
20260905092210 51 120 0.0 0.0 0.00 0.00 0.00 98 1016.7